Find Starlink 4430

NORAD ID: 53485 Int'l Des: 2022-099 Owner: SPXS Country: US Constellation: starlink operational
LEOCIRCULARRETROGRADESSO

当前视图

正在加载3D地球...

About Starlink 4430

Starlink 4430 (NORAD 53485) is a starlink constellation satellite (v1.5) launched Aug 12, 2022 by SPXS of US. It operates in LEO, CIRCULAR, RETROGRADE, SSO orbit with a mass of 300.00 kg.

关于 Starlink 4430

正在加载描述...

即将过境

Passes for default location (London). Set your location on the main map for personalized predictions.

高度历史

Loading altitude history...

两行轨道根数

1 53485U 22099W 26175.06515894 .00002434 00000-0 17256-3 0 9993
2 53485 97.3215 293.7516 0002163 120.6385 239.5056 15.05656043211980
Epoch: Jun 24, 2026 • Age: 16 hours

当前状态

高度 556.1 km
速度 7.58 km/s
星下点 -12.86°S, 121.32°E
发射日期 Aug 12, 2022
运行时间 3.8 years
类型 internet

技术详情

分类 Payload
质量 300.00 kg
干质量 275.00 kg
总质量 300.00 kg
长度 0.20 m
直径 2.80 m
跨度 9.00 m
形状 Box + pan
制造商 SPXS
平台类型 Starlink
阶段状态 In Orbit
所有者/国家 SPXS/US

Most Searched